{"data":{"norad_id":58872,"intl_designator":"2024-019V","name":"STARLINK-31215","alt_names":[],"object_type":"PAYLOAD","status":"ACTIVE","operator":null,"country":"US","launch_date":"2024-01-29","launch_site_code":"AFETR","launch_vehicle":null,"mission":null,"orbit_class":"UNKNOWN","rcs_meters":null,"size_class":null,"mass_kg":null,"dimensions":null,"purposes":["comms"],"wikipedia_slug":null,"has_3d_model":false,"image_url":null,"decayed_at":null,"tle_current":{"epoch":"2026-09-20T08:06:27.748224Z","epoch_age_seconds":166546,"freshness":"FRESH","line1":"1 58872U 24019V   26263.33782116  .00001060  00000+0  48029-4 0  9999","line2":"2 58872  43.0007 229.4505 0001109 274.1700  85.9024 15.27576696148831","mean_motion":15.27576696,"eccentricity":0.0001109,"inclination_deg":43.0007,"raan_deg":229.4505,"arg_perigee_deg":274.17,"mean_anomaly_deg":85.9024,"bstar":4.8029e-5,"rev_number":14883,"period_min":94.266952603472,"perigee_km":482.29808278687,"apogee_km":483.81989605732,"semimajor_km":6861.1959894221,"source":"CELESTRAK","updated_at":"2026-09-21T09:00:33.990816Z"}}}